Regional Weather Roundup
Issued by NWS

Home | Current Version | Previous Version | Text Only | Print | Product List | Glossary On
Versions: 1 2 3 4 5 6 7 8 9 10 11 12 13 14 15 16 17 18 19 20 21 22 23 24 25 26 27 28 29 30 31 32 33 34 35 36 37 38 39 40 41 42 43 44 45 46 47 48 49 50
000
ASUS44 KLIX 261613
RWRLA
LOUISIANA WEATHER ROUNDUP
NATIONAL WEATHER SERVICE NEW ORLEANS LA
1100 AM CDT SUN MAR 26 2017

NOTE: "FAIR" INDICATES FEW OR NO CLOUDS BELOW 12,000 FEET WITH NO
      SIGNIFICANT WEATHER AND/OR OBSTRUCTIONS TO VISIBILITY.
      SKY/WX - SKY CONDITION AND SIGNIFICANT WEATHER.
      TMP - AIR TEMPERATURE.    DP   - DEWPOINT TEMPERATURE.
      RH  - RELATIVE HUMIDITY.  PRES - PRESSURE.
      HX  - HEAT INDEX.         WCI  - WIND CHILL INDEX.

*  THESE STATIONS ARE NOT NWS OR FAA STATIONS AND ARE NOT UNDER
   NWS QUALITY CONTROL.

LAZ040-048-061>063-065-066-069-261700-
SOUTHEAST LOUISIANA

CITY           SKY/WX    TMP DP  RH WIND       PRES   REMARKS
N.O. INTL ARPT PTSUNNY   75  67  76 W3        30.05S
N.O. LAKEFRONT MOSUNNY   77  68  73 S6        30.06S
N.O. DOWNTOWN*   N/A     77  67  71 S8        30.07R
RESERVE*       CLOUDY    78  70  76 SE7       30.05S
SLIDELL        PTSUNNY   75  68  78 S8        30.06R
BATON ROUGE    PTSUNNY   76  68  76 SW8       30.04R
BOOTHVILLE     MOSUNNY   75  70  84 S9        30.08R
BELLE CHASSE   PTSUNNY   75  68  78 SE9       30.06R
BOGALUSA*      NOT AVBL
GALLIANO*      PTSUNNY   76  67  73 S6        30.06R
NEW ROADS*       N/A     69  67  91 S5        30.05R
GONZALES*      PTSUNNY   76  69  78 SE7       30.04R
HAMMOND*       MOSUNNY   73  64  73 S3        30.05S
HOUMA*         PTSUNNY   77  68  73 S6        30.05R
PORT FOURCHON* PTSUNNY   75  68  78 S9        30.06S

$$

LAZ041-044-053-054-261700-
SOUTHWEST LOUISIANA

CITY           SKY/WX    TMP DP  RH WIND       PRES   REMARKS
LAKE CHARLES   PTSUNNY   74  66  76 SW8       30.01R
LAFAYETTE      CLOUDY    77  70  79 CALM      30.03R
PATTERSON      PTSUNNY   77  68  73 S6        30.04S
SALT POINT       N/A     75  69  81 VRB5      30.02S
NEW IBERIA     MOSUNNY   78  68  71 SE9       30.03S
CHENAULT AIRPK PTSUNNY   73  66  78 S8        30.01R

$$

LAZ027-028-261700-
CENTRAL LOUISIANA

CITY           SKY/WX    TMP DP  RH WIND       PRES   REMARKS
FORT POLK      CLOUDY    68  68 100 S10       30.01R
ALEXANDRIA INT PTSUNNY   72  66  81 SE5       29.99S
ALEXANDRIA     MOSUNNY   75  65  70 SW6       30.01R

$$

LAZ001-002-261700-
NORTHWEST LOUISIANA

CITY           SKY/WX    TMP DP  RH WIND       PRES   REMARKS
SHREVEPORT     SUNNY     73  53  49 S9        29.97F
BARKSDALE AFB  SUNNY     71  54  55 S10       29.98S
DTN SHREVEPORT SUNNY     72  54  53 S12       29.98S

$$

LAZ014-016-261700-
NORTHEAST LOUISIANA

CITY           SKY/WX    TMP DP  RH WIND       PRES   REMARKS
MONROE         SUNNY     68  55  63 S3        30.02R
TALLULAH       PTSUNNY   72  63  73 VRB5      30.03R

$$




USA.gov is the U.S. government's official web portal to all federal, state and local government web resources and services.